Tracking 29892 objects as of 21-Nov-2024
HD Live streaming from Space Station
objects crossing your sky now

STARLINK-2364

Track STARLINK-2364 now!
10-day predictions
STARLINK-2364 is classified as:


NORAD ID: 47904
Int'l Code: 2021-021AW
Perigee: 553.3 km
Apogee: 555.2 km
Inclination: 53.1 °
Period: 95.6 minutes
Semi major axis: 6925 km
RCS: Unknown
Launch date: March 14, 2021
Source: United States (US)
Launch site: AIR FORCE EASTERN TEST RANGE (AFETR)
Your satellite tracking list
Your tracking list is empty




NASA's NSSDC Master Catalog

Two Line Element Set (TLE):
1 47904U 21021AW  24325.77655252  .00022811  00000-0  15442-2 0  9997
2 47904  53.0535 229.0938 0001359  94.5085 265.6059 15.06426819204886
Source of the keplerian elements: AFSPC